Regional Weather Roundup
Issued by NWS Charleston, SC

Home | Current Version | Previous Version | Text Only | Print | Product List | Glossary On
Versions: 1 2 3 4 5 6 7 8 9 10 11 12 13 14 15 16 17 18 19 20 21 22 23 24 25 26 27 28 29 30 31 32 33 34 35 36 37 38 39 40 41 42 43 44 45 46 47 48 49 50
000
ASUS42 KCHS 311027
RWRCHS

REGIONAL WEATHER ROUNDUP
NATIONAL WEATHER SERVICE CHARLESTON SC
600 AM EDT FRI JUL 31 2015

NOTE: "FAIR" INDICATES FEW OR NO CLOUDS BELOW 12,000 FEET WITH NO
SIGNIFICANT WEATHER AND/OR OBSTRUCTIONS TO VISIBILITY.

NOT ALL STATIONS ARE QUALITY CONTROLLED BY THE NATIONAL
WEATHER SERVICE. USE DATA WITH CAUTION...ESPECIALLY
DEWPOINT OBSERVATIONS.

SCZ027-030-031-034>040-042>050-311100-
...SOUTHEAST SOUTH CAROLINA...

CITY           SKY/WX    TMP DP  RH WIND       PRES   REMARKS
N CHARLESTON   MOCLDY    79  74  84 W5        29.89R
WATERFRONT PRK   N/A     80  76  87 VRB3      29.86R
MOUNT PLEASANT   N/A     79  75  89 SW3       29.90R
JOHNS ISLAND   PTSUNNY   81  77  89 CALM      29.90R
PINOPOLIS      NOT AVBL
MONCKS CORNER  FAIR      77  73  88 CALM      29.90R
SUMMERVILLE    NOT AVBL
BEAUFORT MCAS  PTCLDY    79  76  90 CALM      29.89R
BEAUFORT ARPT  PTSUNNY   79  79 100 CALM      29.90R
HILTON HEAD IS NOT AVBL
WALTERBORO     SUNNY     77  73  88 CALM      29.92R
ALLENDALE      FAIR      75  75 100 CALM      29.91R FOG

...SOUTHERN MIDLANDS AND PEE DEE...

CITY           SKY/WX    TMP DP  RH WIND       PRES   REMARKS
GEORGETOWN     NOT AVBL
KINGSTREE      NOT AVBL
ORANGEBURG     CLEAR     75  73  93 CALM      29.91R
BARNWELL       FAIR      77  75  94 CALM      29.92R
AIKEN          FAIR      77  70  78 N5        29.96R
MANNING        CLOUDY    77  73  88 CALM      29.91R
COLUMBIA       CLOUDY    81  72  74 N12       29.91R
SUMTER         MOCLDY    78  74  88 NW6       29.90R
FLORENCE       PTCLDY    78  74  87 NE7       29.90R
MYRTLE BEACH   NOT AVBL
N MYRTLE BEACH CLOUDY    79  74  84 CALM      29.88R

$$

GAZ063-065-086>088-099>101-113>116-118-119-134>141-150-311100-
...SOUTHEAST GEORGIA...

CITY           SKY/WX    TMP DP  RH WIND       PRES   REMARKS
SAVANNAH ARPT  CLOUDY    79  74  84 CALM      29.90S
HUNTER AAF     CLOUDY    79  78  96 VRB3      29.88R
FORT STEWART   CLOUDY    78  75  88 SW5       29.89R
STATESBORO     CLOUDY    78  32  18 CALM      29.91R
SYLVANIA       PTSUNNY   78  77  97 CALM      29.92R
CLAXTON        CLOUDY    79  75  89 W3        29.91R

...CSRA...CENTRAL AND FAR SOUTHEAST GEORGIA...

CITY           SKY/WX    TMP DP  RH WIND       PRES   REMARKS
THOMSON        CLEAR     76  76 100 CALM      29.96S
AUGUSTA-BUSH   PTCLDY    75  74  96 CALM      29.89S
AUGUSTA-DANIEL PTCLDY    79  73  82 CALM      29.91S
SWAINSBORO     FAIR     N/A N/A N/A CALM      29.92R
VIDALIA        CLEAR     77  73  88 SW5       29.92R
EASTMAN        FAIR      75  75 100 CALM      29.93F FOG
HAZLEHURST     FAIR      78  78 100 CALM      29.91S
ALMA           PTCLDY    76  75  97 CALM      29.91S FOG
WAYCROSS       CLOUDY    79  79  99 SW3       29.93R
JESUP          FAIR      79  77  94 CALM      29.93R FOG
BAXLEY         CLOUDY    79  77  94 CALM      29.92R FOG
BRUNSWICK      PTCLDY    77  75  94 CALM      29.93S
SAINT SIMONS   PTCLDY    78  76  93 SW7       29.92R

$$

SCZ027-028-034-036>038-045-046-048>050-GAZ119-141-311100-
...LAKE AND SUPPLEMENTAL COASTAL OBSERVATIONS...

STATION/POSITION TIME  TEMP    WIND        PRES    WAVE   SWELL
                       AIR SEA DIR/SP/G            HT/PER HT/PER/DIR
                 (UTC) (F)     (DEG/KT/KT) (MB)    (FT/S) (FT/S/D)
UPR LAKE MARION  NOT AVBL
WINYAH BAY       0900   79     240/  5     1011.0
LAKE MURRAY      0900   80     360/  4/  7 1012.5R
ACE BASIN NERRS  NOT AVBL
FORT PULASKI     1000   80 87  210/  4/  6 1013.0R
SAPELO ISLAND    1000   80     230/ 10     1013.0S

$$

ANZ835-935-AMZ111-154-330-350-352-354-370-450-454-472-311100-
...C-MAN AND BUOY OBSERVATIONS...

STATION/POSITION TIME  TEMP    WIND        PRES    WAVE   SWELL
                       AIR SEA DIR/SP/G            HT/PER HT/PER/DIR
                 (UTC) (F)     (DEG/KT/KT) (MB)    (FT/S) (FT/S/D)
BUOY 41004       0950   84 84  250/ 12/ 14 1011.4R   3/ 4   2/ 8
BUOY 41008       0950   81 83  250/  8/ 10 1013.0R   2/ 4   2/130/ 6
FOLLY BEACH CMAN 1000   81     250/  4/  6 1012.3R
CAPERS NEARSHORE 0908   83     250/ 14/ 19 1011.5F
FRIPP NEARSHORE  0900   84     250/ 12/ 14 1011.7R


STATION/POSITION TIME  TEMP    WIND        PRES    WAVE   SWELL
                       AIR SEA DIR/SP/G            HT/PER HT/PER/DIR
                 (UTC) (F)     (DEG/KT/KT) (MB)    (FT/S) (FT/S/D)
5E ST. MARYS GA  0921      83                N/A     2/ 7
FRYING PAN BUOY  0950   84 84  260/ 12/ 14 1012.0R   3/ 8   3/130/ 8
BUOY 41025       0950   82 85   CALM  /  2 1010.8F   4/ 7   3/160/ 7
CAPE LOOKOUT NC  1000   79     350/  6/  7 1011.0R
BUOY 41002       0950   83 81  220/ 25/ 31 1013.1R  11/ 8
BUOY 41010       0920   83 84  220/ 16/ 17 1014.9F
ST AUGUSTINE FL  1000   76 82  240/  4/  5 1014.8R


$$


USA.gov is the U.S. government's official web portal to all federal, state and local government web resources and services.